Wind_Speed
20 19 17 16 15 14 14 13 12 11 11 10 9 8 8 7 7 8 8 9 10 10 10 11 11 11 12 13 13 14 15 16 16 17 18 19 20 21 21 22 23 24 24
21 20 19 17 16 15 15 14 13 12 12 11 10 9 9 8 8 9 9 9 10 10 10 11 12 12 13 14 15 16 16 17 18 18 20 20 21 22 23 23 24 25 26
22 21 20 19 17 17 16 15 14 13 12 11 11 10 10 9 9 9 9 9 10 10 11 12 13 13 14 15 16 17 17 18 19 20 21 22 22 23 24 25 26 27 27
22 22 20 20 19 18 17 16 15 14 13 12 12 11 10 10 9 10 10 10 11 11 12 13 14 14 15 16 17 18 19 20 20 21 22 23 24 25 26 26 27 28 29
24 23 21 21 20 19 18 17 15 15 14 13 12 11 10 10 10 10 11 11 12 13 13 14 14 15 17 17 18 19 20 21 22 22 23 24 25 26 27 28 29 30 31
25 24 23 22 21 20 19 18 16 15 14 13 12 12 11 11 11 11 12 12 13 13 14 15 15 17 17 18 19 20 21 22 23 24 25 26 27 28 29 30 31 32 33
26 25 24 23 22 20 20 19 18 16 15 14 13 12 12 12 12 12 13 13 13 14 15 16 17 18 19 20 21 22 23 24 25 26 27 28 29 30 31 32 33 34 35
28 27 25 24 23 21 20 20 18 17 16 15 14 13 12 12 13 13 13 14 15 15 16 17 18 19 20 22 23 24 25 26 27 28 29 30 31 32 33 34 35 35 36
29 28 27 25 24 23 22 21 19 18 17 16 15 13 13 14 14 14 14 15 16 16 17 18 19 20 22 23 24 26 27 28 29 30 31 32 33 33 34 35 35 36 36
30 29 28 26 25 24 23 22 21 19 18 16 15 14 14 14 14 15 15 16 16 17 18 20 21 22 23 24 26 27 28 30 31 31 32 33 34 35 35 36 36 37 37
31 30 29 28 26 24 23 22 21 20 18 17 16 15 15 15 15 15 16 16 17 18 20 21 22 23 25 26 28 29 30 31 32 33 34 34 35 36 36 37 37 37 38
32 30 30 29 27 25 24 23 22 20 19 18 17 17 16 16 16 16 16 17 18 19 21 22 23 25 26 28 29 31 32 32 33 34 34 35 36 36 37 37 37 38 38
32 31 30 29 28 26 25 24 22 21 20 19 18 17 17 17 16 17 18 18 19 21 22 23 25 26 28 29 30 32 33 33 34 34 35 36 36 37 37 38 38 38 38
33 32 31 30 29 28 26 25 23 22 21 20 19 19 18 18 18 18 19 20 21 22 24 25 26 28 29 30 32 33 34 34 34 35 36 36 37 37 37 38 38 38 38
34 32 31 30 29 28 27 26 24 23 22 21 20 20 19 19 19 19 20 21 23 24 25 26 28 29 31 32 33 34 34 35 35 36 36 37 37 38 38 38 38 37 37
34 33 32 31 30 29 28 27 25 24 23 22 21 21 20 20 20 21 22 23 24 25 27 28 29 31 32 33 34 34 35 36 36 36 37 37 38 38 38 37 37 37 38
35 34 33 32 31 30 29 28 26 25 24 23 22 22 21 21 22 23 24 25 26 27 28 29 31 32 33 34 34 35 36 36 36 37 37 37 38 38 38 37 37 38 38
36 35 34 33 32 30 29 28 27 26 25 24 23 23 23 23 24 24 25 26 27 28 30 31 32 33 34 34 35 35 36 37 37 37 37 37 37 38 38 38 38 38 39
38 37 35 34 33 32 31 29 28 27 26 25 25 24 25 25 25 26 26 27 28 29 31 32 33 34 34 35 35 36 37 37 38 38 37 37 38 38 38 38 38 39 39
39 38 37 36 35 33 32 30 29 28 27 26 26 26 26 26 26 27 28 28 29 31 32 32 33 34 35 35 36 36 37 38 38 38 37 38 38 38 39 39 39 39 40
40 39 38 37 36 34 33 31 30 29 28 27 27 27 27 27 27 28 29 30 31 32 32 33 34 34 35 36 36 37 37 38 38 38 38 38 38 39 39 40 40 40 41
41 40 38 38 37 35 34 32 31 30 30 29 28 28 28 28 29 30 30 31 32 32 33 34 34 35 36 36 36 37 37 37 37 38 38 38 39 40 40 41 42 42 43
42 40 39 38 38 36 35 33 32 31 31 30 29 29 29 30 30 30 31 32 32 33 34 34 35 36 36 36 37 37 38 37 37 37 38 39 40 41 42 42 43 44 45
42 42 41 39 38 38 36 35 33 32 31 31 31 31 31 31 31 31 32 32 33 34 34 35 35 36 36 37 37 38 38 38 38 37 38 40 41 42 42 43 44 45 46
43 42 41 40 39 38 37 36 35 33 33 33 32 32 32 32 32 33 33 33 34 34 35 35 35 35 36 37 37 38 38 38 39 39 39 41 42 42 43 44 45 46 46
44 43 42 41 40 39 38 37 36 35 34 34 33 33 33 33 34 34 34 34 34 35 35 35 35 36 36 37 38 38 38 38 39 40 41 42 42 43 44 45 46 46 47
Wind_Direction
229 229 230 231 231 232 235 235 238 240 241 244 249 257 267 274 280 286 292 296 299 302 303 305 308 309 309 310 309 310 310 310 310 309 308 307 306 305 304 303 302 301 300
229 229 229 230 231 232 234 235 237 239 241 245 252 258 266 273 279 286 291 296 299 301 303 307 309 309 309 309 309 309 309 309 309 309 308 307 306 305 305 304 302 301 299
229 229 229 229 231 232 233 235 236 238 241 247 253 259 265 271 278 285 290 294 297 299 303 307 308 308 309 310 309 309 309 309 309 309 308 307 306 306 305 304 302 301 299
229 230 230 230 231 232 234 234 235 238 243 248 254 259 264 270 277 283 288 292 295 299 303 305 306 306 308 309 309 309 309 309 309 308 308 307 306 306 305 304 303 301 300
228 230 231 231 231 232 234 234 236 239 243 248 252 258 263 270 277 283 288 291 294 298 301 303 305 306 307 308 309 309 309 309 309 308 308 307 307 306 305 305 303 302 300
228 230 231 231 231 232 235 235 238 240 243 247 252 257 263 269 276 283 287 290 294 297 300 303 305 306 307 308 309 309 310 310 310 310 309 308 307 306 305 304 303 302 301
229 230 229 230 231 233 234 236 238 240 242 246 252 256 262 269 277 282 286 290 294 297 301 304 306 307 308 309 310 310 311 311 311 311 310 309 308 307 306 305 305 303 301
228 229 229 229 231 232 234 236 238 239 242 246 251 255 262 269 278 282 285 290 294 298 301 304 306 307 308 309 310 311 311 311 311 311 311 310 309 308 307 307 305 304 302
227 228 228 229 229 231 234 236 237 239 242 246 249 254 262 271 278 280 285 291 295 298 301 304 306 308 309 310 311 311 312 312 312 311 311 310 310 309 308 307 305 304 303
226 227 228 228 229 231 233 235 237 238 241 245 248 255 263 271 277 280 285 291 295 299 302 305 307 309 309 310 311 312 312 312 312 311 311 311 310 309 308 307 306 305 304
226 226 227 228 229 231 233 235 236 237 240 244 249 256 263 270 276 280 285 290 295 299 302 305 307 309 309 310 311 311 312 313 313 312 312 312 311 310 309 308 307 306 305
226 226 226 227 228 231 233 234 235 237 240 244 250 256 262 270 275 280 285 289 294 299 302 305 307 308 309 310 311 312 312 313 313 313 313 312 312 311 310 309 308 307 306
226 226 227 227 228 230 231 232 234 237 241 245 251 255 262 269 274 280 285 290 294 298 302 305 307 309 310 311 312 312 313 314 314 313 313 312 312 311 310 309 308 308 307
226 227 226 227 229 230 231 232 234 237 241 246 250 255 262 268 273 280 286 291 294 298 302 304 307 309 311 312 312 313 314 314 314 313 313 313 313 312 311 310 310 309 308
225 226 226 227 229 230 230 231 234 237 242 246 251 257 262 267 274 282 287 291 294 297 301 303 306 309 311 312 312 313 314 314 314 314 314 314 313 313 312 312 311 310 310
225 226 226 228 228 229 229 232 234 238 243 247 252 257 262 268 276 283 288 291 294 297 300 303 306 309 311 312 312 313 314 314 314 314 314 314 313 313 313 312 312 311 311
226 226 227 228 228 228 230 232 236 240 244 249 253 258 264 270 277 283 288 291 294 297 300 303 306 309 311 312 312 313 313 314 314 314 314 313 313 313 313 312 312 311 311
226 227 227 227 227 228 231 234 237 241 246 250 255 260 265 271 277 283 288 291 294 297 300 303 306 308 310 311 311 312 313 313 314 314 313 313 314 313 313 312 312 312 311
226 227 227 227 228 229 232 235 239 242 247 251 256 261 266 271 277 283 288 291 294 296 300 303 305 308 309 310 311 311 312 313 313 313 313 313 313 313 313 312 312 312 311
226 227 228 228 229 231 234 237 240 244 248 252 257 262 267 272 278 283 287 290 293 297 299 302 304 306 308 309 309 310 312 312 313 313 313 312 312 312 312 312 312 312 312
227 228 228 229 231 233 235 238 242 245 249 252 257 262 267 273 278 282 286 290 294 297 299 301 303 305 307 308 308 310 311 312 312 312 312 312 312 312 312 311 312 312 311
227 229 230 231 232 234 237 239 242 245 249 252 257 263 268 272 277 282 287 291 294 296 298 300 301 304 305 307 308 309 310 311 311 311 311 311 312 312 312 311 312 311 311
228 230 231 232 234 236 238 241 243 246 249 254 259 264 268 272 277 283 287 291 293 295 297 299 300 303 304 305 307 308 310 310 310 310 311 311 312 312 312 312 312 311 310
230 231 233 234 235 237 239 241 244 247 251 255 259 264 269 274 278 283 287 290 292 294 296 298 300 302 303 305 306 307 308 309 309 310 311 311 312 312 312 312 312 311 311
231 232 233 235 236 238 240 242 245 248 251 255 260 265 270 274 278 282 286 288 291 293 295 297 299 301 303 304 305 306 307 308 309 310 311 311 311 311 312 312 313 312 311
231 233 234 235 237 239 241 243 246 249 252 256 261 265 270 274 278 282 284 287 290 292 293 296 298 300 302 303 304 305 306 307 308 310 310 311 311 311 311 312 312 312 311
Height
5864 5866 5868 5870 5871 5873 5874 5876 5877 5878 5878 5879 5879 5880 5880 5880 5880 5880 5880 5880 5879 5879 5879 5878 5878 5877 5876 5875 5874 5873 5872 5871 5870 5868 5867 5866 5864 5863 5861 5860 5858 5857 5855
5862 5864 5866 5867 5869 5871 5872 5874 5875 5876 5877 5877 5878 5878 5878 5879 5879 5879 5878 5878 5878 5878 5877 5877 5876 5875 5874 5873 5872 5871 5870 5869 5867 5866 5864 5863 5861 5860 5858 5857 5855 5853 5851
5859 5861 5863 5865 5867 5869 5870 5872 5873 5874 5875 5876 5876 5877 5877 5877 5877 5877 5877 5877 5877 5876 5876 5875 5874 5874 5873 5871 5870 5869 5868 5866 5865 5864 5862 5860 5858 5857 5855 5853 5851 5849 5847
5855 5857 5860 5862 5864 5866 5868 5869 5871 5872 5873 5874 5874 5875 5875 5875 5876 5876 5876 5875 5875 5875 5874 5874 5873 5872 5871 5869 5868 5867 5865 5864 5862 5861 5859 5857 5855 5853 5851 5849 5847 5845 5843
5852 5854 5857 5859 5861 5863 5865 5867 5868 5869 5870 5871 5872 5873 5873 5874 5874 5874 5874 5874 5873 5873 5872 5872 5871 5870 5868 5867 5866 5864 5863 5861 5859 5858 5856 5854 5852 5850 5847 5845 5843 5841 5838
5848 5851 5853 5856 5858 5860 5862 5864 5866 5867 5868 5869 5870 5871 5871 5872 5872 5872 5872 5872 5871 5871 5870 5869 5868 5867 5866 5864 5863 5861 5860 5858 5856 5854 5852 5850 5848 5845 5843 5840 5838 5835 5833
5844 5847 5850 5852 5855 5857 5859 5861 5863 5864 5866 5867 5868 5868 5869 5869 5870 5870 5870 5870 5869 5869 5868 5867 5866 5864 5863 5861 5860 5858 5856 5854 5852 5850 5848 5846 5843 5841 5838 5835 5833 5830 5827
5840 5843 5846 5848 5851 5854 5856 5858 5860 5861 5863 5864 5865 5866 5867 5867 5867 5867 5867 5867 5867 5866 5865 5864 5863 5861 5860 5858 5857 5855 5853 5851 5848 5846 5844 5841 5838 5836 5833 5830 5827 5824 5821
5835 5839 5842 5845 5847 5850 5852 5854 5856 5858 5860 5861 5862 5863 5864 5865 5865 5865 5865 5865 5864 5863 5862 5861 5860 5858 5857 5855 5853 5851 5849 5846 5844 5842 5839 5836 5833 5830 5827 5824 5821 5818 5814
5831 5834 5837 5840 5844 5846 5849 5851 5853 5855 5857 5858 5859 5860 5861 5862 5862 5862 5862 5862 5861 5860 5859 5858 5857 5855 5853 5851 5849 5847 5845 5842 5840 5837 5834 5831 5828 5825 5821 5818 5815 5811 5808
5826 5830 5833 5836 5839 5842 5845 5847 5849 5852 5854 5855 5857 5858 5858 5859 5859 5859 5859 5859 5858 5857 5856 5855 5853 5852 5850 5848 5845 5843 5840 5838 5835 5832 5829 5826 5822 5819 5815 5812 5808 5804 5801
5821 5825 5828 5832 5835 5838 5841 5843 5846 5848 5850 5852 5853 5854 5855 5856 5856 5856 5856 5855 5855 5854 5852 5851 5850 5848 5846 5844 5841 5839 5836 5833 5830 5826 5823 5820 5816 5812 5809 5805 5801 5798 5794
5815 5820 5823 5827 5830 5834 5837 5839 5842 5844 5846 5848 5849 5851 5852 5852 5852 5852 5852 5852 5851 5850 5849 5847 5845 5844 5842 5839 5837 5834 5831 5828 5824 5821 5817 5814 5810 5806 5802 5799 5795 5791 5787
5810 5814 5818 5822 5825 5829 5832 5835 5838 5840 5842 5844 5846 5847 5848 5848 5849 5848 5848 5848 5847 5846 5844 5843 5841 5839 5837 5834 5831 5829 5825 5822 5819 5815 5811 5808 5804 5800 5796 5792 5788 5784 5780
5805 5809 5813 5817 5820 5824 5827 5831 5834 5836 5838 5840 5841 5843 5843 5844 5844 5844 5844 5843 5843 5841 5840 5838 5837 5834 5832 5829 5826 5823 5820 5816 5813 5809 5805 5802 5798 5794 5790 5785 5781 5777 5773
5800 5804 5808 5812 5815 5819 5823 5826 5829 5832 5834 5836 5837 5838 5839 5840 5840 5840 5840 5839 5838 5837 5835 5833 5831 5829 5826 5823 5820 5817 5814 5810 5807 5803 5799 5795 5791 5787 5783 5779 5775 5771 5767
5794 5798 5802 5806 5810 5814 5818 5821 5824 5827 5829 5831 5832 5833 5834 5835 5835 5835 5835 5834 5833 5832 5830 5828 5826 5823 5821 5818 5815 5811 5808 5805 5801 5797 5793 5789 5785 5781 5777 5772 5768 5764 5760
5788 5793 5797 5801 5805 5809 5813 5816 5819 5822 5824 5826 5827 5828 5829 5830 5830 5830 5830 5829 5828 5826 5825 5823 5820 5818 5815 5812 5809 5806 5802 5798 5795 5791 5787 5783 5779 5775 5770 5766 5762 5758 5753
5782 5787 5791 5796 5800 5804 5807 5811 5814 5817 5819 5821 5822 5823 5824 5825 5825 5825 5825 5824 5822 5821 5819 5817 5815 5812 5809 5806 5803 5799 5796 5792 5788 5784 5780 5776 5772 5768 5764 5760 5755 5751 5746
5776 5781 5785 5790 5794 5798 5802 5805 5808 5811 5813 5815 5817 5818 5819 5819 5820 5819 5819 5818 5817 5815 5813 5811 5808 5806 5803 5800 5797 5793 5790 5786 5782 5778 5774 5770 5766 5762 5757 5753 5748 5744 5739
5769 5774 5779 5784 5788 5792 5796 5800 5803 5806 5808 5810 5811 5812 5813 5814 5814 5814 5813 5812 5811 5809 5807 5805 5802 5800 5797 5793 5790 5787 5783 5780 5776 5772 5767 5763 5759 5755 5751 5746 5742 5737 5732
5762 5768 5773 5778 5782 5787 5791 5794 5797 5799 5801 5804 5805 5807 5808 5808 5808 5807 5807 5806 5804 5803 5801 5798 5796 5793 5790 5787 5784 5780 5777 5774 5769 5765 5761 5757 5752 5748 5743 5739 5734 5729 5724
5756 5762 5767 5772 5776 5780 5784 5787 5790 5793 5795 5798 5800 5801 5801 5801 5802 5801 5800 5799 5798 5796 5794 5792 5789 5786 5783 5780 5777 5774 5770 5767 5763 5759 5754 5750 5745 5741 5736 5731 5726 5721 5715
5749 5755 5760 5765 5769 5773 5777 5781 5784 5787 5790 5792 5793 5794 5794 5795 5795 5795 5794 5793 5791 5789 5787 5785 5782 5779 5776 5773 5770 5766 5763 5759 5756 5752 5748 5743 5738 5733 5728 5723 5717 5712 5706
5742 5747 5753 5758 5762 5766 5770 5774 5777 5780 5783 5784 5786 5787 5788 5788 5788 5788 5787 5786 5784 5782 5780 5778 5775 5773 5769 5766 5763 5759 5755 5752 5748 5744 5741 5736 5731 5725 5720 5714 5709 5703 5697
5735 5740 5745 5750 5755 5759 5763 5767 5770 5773 5775 5777 5779 5780 5781 5782 5781 5781 5780 5779 5777 5775 5773 5771 5768 5765 5762 5759 5756 5752 5748 5744 5740 5736 5732 5728 5723 5717 5711 5705 5699 5694 5688